Starlink 5280

operational
NORAD ID: 54166 Int'l Des: 2022-141 Owner: SPXS Country: US Constellation: starlink
LEOCIRCULAR

Über Starlink 5280

Beschreibung wird geladen...

Live-Position

3D-Globus wird geladen...

Nächste Überflüge

Höhenverlauf

Altitude vs Time

uPlot chart will show altitude changes over time

Zweizeiliger Elementsatz

1 54166U 22141K 26035.48933472 -.00002315 00000-0 -12745-3 0 9993
2 54166 53.2176 153.2918 0001309 60.4518 299.6605 15.08823637180845
Epoch: 4. Feb. 2026 • Age: 11 hours

Aktueller Status

Höhe 541.9 km
Geschwindigkeit 7.60 km/s
Subsatellitenpunkt 37.17°N, 64.05°E
Startdatum 28. Okt. 2022
Alter 3.2 years
Typ internet

Technische Details

Klassifizierung Payload
Masse 305.00 kg
Trockenmasse 290.00 kg
Gesamtmasse 305.00 kg
Länge 0.20 m
Durchmesser 2.80 m
Spannweite 9.00 m
Form Box + pan
Hersteller SPXS
Bus-Typ Starlink
Phasenstatus In Orbit
Besitzer/Staat SPXS/US

Große Konstellationen

Loading constellations...